This is the latest recevied weather packets stored in our database for station/object R6DH-11. If no packets are shown the sender has not sent any weather packets the latest 10 day(s).
| Time | Temp. | Humidity | Pressure | Rain* | Wind** | Luminosity | Snow |
|---|---|---|---|---|---|---|---|
| 1778098613 | 13.33° C | 64% | 1014.3 hPa | - | - | - | - |
| 1778097711 | 13.89° C | 62% | 1014.2 hPa | - | - | - | - |
| 1778096811 | 13.89° C | 61% | 1014.3 hPa | - | - | - | - |
| 1778095007 | 13.89° C | 61% | 1014.3 hPa | - | - | - | - |
| 1778094105 | 13.89° C | 62% | 1014.2 hPa | - | - | - | - |
| 1778093204 | 14.44° C | 60% | 1014.3 hPa | - | - | - | - |
| 1778092302 | 14.44° C | 58% | 1014.2 hPa | - | - | - | - |
| 1778091401 | 15° C | 55% | 1014 hPa | - | - | - | - |
| 1778090499 | 15.56° C | 56% | 1014 hPa | - | - | - | - |
| 1778089597 | 15.56° C | 54% | 1014 hPa | - | - | - | - |
| 1778088703 | 16.67° C | 53% | 1013.9 hPa | - | - | - | - |
| 1778087794 | 16.67° C | 52% | 1013.8 hPa | - | - | - | - |
| 1778086893 | 17.22° C | 52% | 1013.7 hPa | - | - | - | - |
| 1778085991 | 17.22° C | 50% | 1013.7 hPa | - | - | - | - |
| 1778085090 | 17.78° C | 48% | 1013.6 hPa | - | - | - | - |
| 1778084188 | 18.33° C | 46% | 1013.4 hPa | - | - | - | - |
| 1778083287 | 18.89° C | 44% | 1013.3 hPa | - | - | - | - |
| 1778082385 | 19.44° C | 42% | 1013.3 hPa | - | - | - | - |
| 1778081483 | 19.44° C | 40% | 1013.3 hPa | - | - | - | - |
| 1778080582 | 20° C | 38% | 1013.2 hPa | - | - | - | - |
| 1778079718 | 20.56° C | 37% | 1013.1 hPa | - | - | - | - |
| 1778077915 | 21.11° C | 37% | 1013.2 hPa | - | - | - | - |
| 1778077013 | 21.67° C | 35% | 1013.1 hPa | - | - | - | - |
| 1778076111 | 22.22° C | 35% | 1013.2 hPa | - | - | - | - |
| 1778075210 | 22.22° C | 35% | 1013.1 hPa | - | - | - | - |
* Rain since midnight (hover to see other rain measurements)
** Current wind speed in m/s (hover to see current wind gust speed)